2024/03/09 00:00:00,23.9,-2.2
2024/03/09 00:10:00,23.8,-2.3
2024/03/09 00:20:00,24.1,-2.2
2024/03/09 00:30:00,24.1,-2.3
2024/03/09 00:40:00,23.9,-2.3
2024/03/09 00:50:00,23.8,-2.6
2024/03/09 01:00:00,23.8,-2.6
2024/03/09 01:10:00,23.7,-2.7
2024/03/09 01:20:00,23.7,-2.3
2024/03/09 01:30:00,23.8,-2.4
2024/03/09 01:40:00,23.8,-2.5
2024/03/09 01:50:00,23.7,-2.6
2024/03/09 02:00:00,24.0,-2.8
2024/03/09 02:10:00,24.0,-2.6
2024/03/09 02:20:00,24.3,-2.5
2024/03/09 02:30:00,24.5,-2.7
2024/03/09 02:40:00,24.9,-2.7
2024/03/09 02:50:00,25.0,-2.8
2024/03/09 03:00:00,25.1,-2.8
2024/03/09 03:10:00,25.3,-2.8
2024/03/09 03:20:00,25.5,-2.9
2024/03/09 03:30:00,25.9,-2.8
2024/03/09 03:40:00,26.2,-3.0
2024/03/09 03:50:00,26.7,-3.0
2024/03/09 04:00:00,26.7,-2.9
2024/03/09 04:10:00,26.8,-3.0
2024/03/09 04:20:00,27.2,-3.2
2024/03/09 04:30:00,27.8,-3.2
2024/03/09 04:40:00,28.3,-3.1
2024/03/09 04:50:00,28.3,-2.9
2024/03/09 05:00:00,28.7,-3.5
2024/03/09 05:10:00,29.0,-3.2
2024/03/09 05:20:00,29.1,-3.3
2024/03/09 05:30:00,29.0,-3.3
2024/03/09 05:40:00,29.6,-3.5
2024/03/09 05:50:00,29.8,-3.3
2024/03/09 06:00:00,29.7,-3.2
2024/03/09 06:10:00,29.7,-3.3
2024/03/09 06:20:00,30.1,-3.4
2024/03/09 06:30:00,30.3,-3.1
2024/03/09 06:40:00,30.4,-3.3
2024/03/09 06:50:00,30.3,-3.1
2024/03/09 07:00:00,30.6,-3.2
2024/03/09 07:10:00,31.3,-3.2
2024/03/09 07:20:00,31.6,-3.0
2024/03/09 07:30:00,32.3,-3.0
2024/03/09 07:40:00,32.5,-2.5
2024/03/09 07:50:00,32.7,-2.9
2024/03/09 08:00:00,33.4,-3.0
2024/03/09 08:10:00,34.0,-2.4
2024/03/09 08:20:00,34.4,-1.7
2024/03/09 08:30:00,34.8,-1.9
2024/03/09 08:40:00,34.9,-1.9
2024/03/09 08:50:00,34.8,-2.3
2024/03/09 09:00:00,34.8,-1.9
2024/03/09 09:10:00,34.8,-1.6
2024/03/09 09:20:00,35.1,-1.2
2024/03/09 09:30:00,35.2,-0.1
2024/03/09 09:40:00,35.3, 1.0
2024/03/09 09:50:00,35.2,-0.9
2024/03/09 10:00:00,36.1,-1.3
2024/03/09 10:10:00,36.9,-1.2
2024/03/09 10:20:00,37.3,-0.6
2024/03/09 10:30:00,37.3, 0.8
2024/03/09 10:40:00,37.1, 0.5
2024/03/09 10:50:00,37.5, 1.1
2024/03/09 11:00:00,37.4,-0.7
2024/03/09 11:10:00,38.0, 0.1
2024/03/09 11:20:00,37.8,-0.1
2024/03/09 11:30:00,38.1,-0.6
2024/03/09 11:40:00,38.3,-0.6
2024/03/09 11:50:00,38.5,-0.4
2024/03/09 12:00:00,38.3,-0.9
2024/03/09 12:10:00,38.8, 0.5
2024/03/09 12:20:00,38.6,-0.2
2024/03/09 12:30:00,39.0,-0.4
2024/03/09 12:40:00,39.6,-0.5
2024/03/09 12:50:00,40.3,-0.5
2024/03/09 13:00:00,40.6,-1.1
2024/03/09 13:10:00,40.8,-1.0
2024/03/09 13:20:00,40.9,-1.2
2024/03/09 13:30:00,41.1,-0.9
2024/03/09 13:40:00,41.0,-0.9
2024/03/09 13:50:00,41.3,-1.1
2024/03/09 14:00:00,41.4,-1.1
2024/03/09 14:10:00,41.4,-1.2
2024/03/09 14:20:00,41.2,-1.2
2024/03/09 14:30:00,41.1,-0.9
2024/03/09 14:40:00,41.3,-1.0
2024/03/09 14:50:00,41.4,-0.8
2024/03/09 15:00:00,41.1,-0.8
2024/03/09 15:10:00,40.9,-1.6
2024/03/09 15:20:00,40.8,-0.8
2024/03/09 15:30:00,40.6,-1.3
2024/03/09 15:40:00,40.4,-1.6
2024/03/09 15:50:00,40.3,-0.9
2024/03/09 16:00:00,40.2,-1.5
2024/03/09 16:10:00,40.0,-1.8
2024/03/09 16:20:00,39.9,-2.1
2024/03/09 16:30:00,39.9,-0.6
2024/03/09 16:40:00,39.7,-1.7
2024/03/09 16:50:00,39.6,-1.9
2024/03/09 17:00:00,39.5,-2.3
2024/03/09 17:10:00,39.4,-2.4
2024/03/09 17:20:00,39.3,-2.8
2024/03/09 17:30:00,39.3,-3.0
2024/03/09 17:40:00,39.3,-2.9
2024/03/09 17:50:00,39.3,-3.0
2024/03/09 18:00:00,39.5,-3.3
2024/03/09 18:10:00,39.3,-3.3
2024/03/09 18:20:00,39.3,-3.1
2024/03/09 18:30:00,39.2,-3.4
2024/03/09 18:40:00,39.2,-3.1
2024/03/09 18:50:00,39.2,-3.3
2024/03/09 19:00:00,39.1,-3.2
2024/03/09 19:10:00,38.9,-3.3
2024/03/09 19:20:00,38.8,-3.3
2024/03/09 19:30:00,38.7,-3.3
2024/03/09 19:40:00,38.7,-3.5
2024/03/09 19:50:00,38.6,-3.4
2024/03/09 20:00:00,38.6,-3.4
2024/03/09 20:10:00,38.5,-3.4
2024/03/09 20:20:00,38.5,-3.2
2024/03/09 20:30:00,38.4,-3.4
2024/03/09 20:40:00,38.4,-3.4
2024/03/09 20:50:00,38.3,-3.5
2024/03/09 21:00:00,38.7,-3.2
2024/03/09 21:10:00,38.6,-3.2
2024/03/09 21:20:00,38.7,-3.6
2024/03/09 21:30:00,39.1,-3.4
2024/03/09 21:40:00,39.4,-3.6
2024/03/09 21:50:00,39.5,-3.8
2024/03/09 22:00:00,39.6,-3.6
2024/03/09 22:10:00,39.5,-3.7
2024/03/09 22:20:00,39.4,-3.7
2024/03/09 22:30:00,39.3,-4.2
2024/03/09 22:40:00,39.3,-4.3
2024/03/09 22:50:00,39.2,-4.7
2024/03/09 23:00:00,39.2,-5.0
2024/03/09 23:10:00,39.0,-4.6
2024/03/09 23:20:00,38.9,-4.5
2024/03/09 23:30:00,38.8,-4.2
2024/03/09 23:40:00,38.8,-3.9
2024/03/09 23:50:00,38.6,-3.8
